Peru, IN

9:23 AM EDT on June 25, 2017 (GMT -0400)
Grissom Air Reserve Base

Weather History for KGUS - September, 2013

Change the Weather History Date:

Wednesday, September 25, 2013

  Actual Average Record
Temperature  
Mean Temperature 60 °F -  
Max Temperature 74 °F 70 °F 86 °F (2007)
Min Temperature 48 °F 49 °F 41 °F (2001)
Degree Days  
Heating Degree Days 4    
Growing Degree Days 10 (Base 50)    
Moisture  
Dew Point 51 °F    
Average Humidity 78    
Maximum Humidity 100    
Minimum Humidity 44    
Precipitation  
Precipitation 0.00 in - - ()
Sea Level Pressure  
Sea Level Pressure 29.94 in    
Wind  
Wind Speed 6 mph (ENE)    
Max Wind Speed 10 mph    
Max Gust Speed -    
Visibility 10 miles    
Events      
Averages and records for this station are not official NWS values.
T = Trace of Precipitation, MM = Missing Value Source: NWS Daily Summary

Daily Weather History Graph

Daily Weather History Graph

Search for Another Location

Airport or City:

Trip Planner

Search our weather history database for the weather conditions in past years. The results will help you decide how hot, cold, wet, or windy it might be!

Date:

Astronomy

Sep. 25, 2013 Rise Set
Actual Time 7:35 AM EDT 7:36 PM EDT
Civil Twilight 7:08 AM EDT 8:03 PM EDT
Nautical Twilight 6:36 AM EDT 8:35 PM EDT
Astronomical Twilight 6:03 AM EDT 9:07 PM EDT
Moon 11:40 PM EDT 1:42 PM EDT
Length of Visible Light 12h 55m
Length of Day
12h 00m
Waning Gibbous, 64% of the Moon is Illuminated
Sep 25
Waning Gibbous
Sep 26
Last Quarter
Oct 4
New
Oct 11
First Quarter
Oct 18
Full

Hourly Weather History & Observations

Time (EDT) Temp. Dew Point Humidity Pressure Visibility Wind Dir Wind Speed Gust Speed Precip Events Conditions
12:58 AM 56.3 °F 48.6 °F 75% 29.95 in 10.0 mi East 5.8 mph - N/A   Overcast
1:58 AM 54.7 °F 48.9 °F 81% 29.94 in 10.0 mi East 6.9 mph - N/A   Overcast
2:58 AM 51.6 °F 48.9 °F 90% 29.94 in 10.0 mi East 4.6 mph - N/A   Clear
3:58 AM 50.7 °F 49.3 °F 95% 29.93 in 10.0 mi ENE 4.6 mph - N/A   Scattered Clouds
4:58 AM 51.4 °F 50.2 °F 95% 29.92 in 10.0 mi ENE 5.8 mph - N/A   Overcast
5:58 AM 50.4 °F 49.8 °F 98% 29.93 in 10.0 mi ENE 4.6 mph - N/A   Mostly Cloudy
6:38 AM 48.2 °F 48.2 °F 100% 29.92 in 9.0 mi ENE 3.5 mph - N/A   Clear
6:53 AM 48.2 °F 48.2 °F 100% 29.93 in 8.0 mi NE 5.8 mph - N/A   Clear
6:58 AM 48.0 °F 48.0 °F 100% 29.94 in 7.0 mi NE 5.8 mph - N/A   Clear
7:03 AM 48.2 °F 48.2 °F 100% 29.93 in 7.0 mi NE 5.8 mph - N/A   Clear
7:58 AM 49.1 °F 49.1 °F 100% 29.95 in 9.0 mi East 5.8 mph - N/A   Partly Cloudy
8:03 AM 50.0 °F 50.0 °F 100% 29.94 in 9.0 mi East 5.8 mph - N/A   Partly Cloudy
8:58 AM 52.3 °F 51.1 °F 95% 29.96 in 10.0 mi ENE 6.9 mph - N/A   Overcast
9:58 AM 56.1 °F 52.2 °F 87% 29.97 in 10.0 mi ENE 5.8 mph - N/A   Overcast
10:30 AM 60.8 °F 53.6 °F 77% 29.95 in 10.0 mi East 5.8 mph - N/A   Partly Cloudy
10:58 AM 62.4 °F 52.5 °F 70% 29.98 in 10.0 mi ESE 9.2 mph - N/A   Clear
11:58 AM 67.1 °F 53.4 °F 61% 29.96 in 10.0 mi East 8.1 mph - N/A   Clear
12:58 PM 70.3 °F 52.0 °F 52% 29.96 in 10.0 mi ENE 10.4 mph - N/A   Clear
1:58 PM 72.0 °F 52.9 °F 51% 29.94 in 10.0 mi NNE 4.6 mph - N/A   Clear
2:58 PM 73.0 °F 53.2 °F 50% 29.92 in 10.0 mi NE 6.9 mph - N/A   Clear
3:58 PM 73.8 °F 53.8 °F 50% 29.92 in 10.0 mi NNW 6.9 mph - N/A   Clear
4:58 PM 73.8 °F 50.7 °F 44% 29.92 in 10.0 mi North 6.9 mph - N/A   Clear
5:58 PM 72.9 °F 51.1 °F 46% 29.92 in 10.0 mi NE 6.9 mph - N/A   Clear
6:58 PM 69.4 °F 51.3 °F 52% 29.93 in 10.0 mi ENE 8.1 mph - N/A   Clear
7:58 PM 61.0 °F 50.7 °F 69% 29.94 in 10.0 mi ENE 6.9 mph - N/A   Clear
8:58 PM 59.4 °F 50.9 °F 74% 29.95 in 10.0 mi NE 6.9 mph - N/A   Clear
9:58 PM 56.3 °F 49.6 °F 78% 29.96 in 10.0 mi NE 6.9 mph - N/A   Clear
10:58 PM 55.9 °F 50.4 °F 82% 29.97 in 10.0 mi ENE 8.1 mph - N/A   Clear
11:58 PM 57.0 °F 51.8 °F 83% 29.97 in 10.0 mi ENE 6.9 mph - N/A   Clear